This demonstration page uses our WeatherBlox Daily Observations layout. Learn more.

36.17497, -115.13722

Hourly Observations for February 12, 2018

Temp ( °F °C ) Dew Point ( °F °C ) Humidity (%) Winds ( mph kmh ) Pressure ( in mb ) Visibility ( mi km ) Precip ( " mm )
12:53 am 00:53 Clear 52 11.1 8 -13.3 17 17 SW 8 13 29.67 1005 10 16.0934 0 0
1:53 am 01:53 Clear 55 12.8 15 -9.4 20 20 SSW 14 22 29.66 1004 10 16.0934 0 0
2:53 am 02:53 Clear 55 12.8 17 -8.3 22 22 SW 22 35 29.63 1004 10 16.0934 0 0
3:53 am 03:53 Clear 54 12.2 21 -6.1 28 28 SW 10 17 29.67 1005 10 16.0934 0 0
4:53 am 04:53 Clear 53 11.7 22 -5.6 30 30 SW 15 24 29.68 1005 10 16.0934 0 0
5:53 am 05:53 Clear 51 10.6 21 -6.1 31 31 S 13 20 29.71 1006 10 16.0934 0 0
6:53 am 06:53 Sunny 50 10 23 -5 35 35 SW 8 13 29.73 1007 10 16.0934 0 0
7:53 am 07:53 Sunny 52 11.1 22 -5.6 31 31 NW 3 6 29.76 1008 10 16.0934 0 0
8:53 am 08:53 Sunny 54 12.2 24 -4.4 31 31 W 5 7 29.77 1008 10 16.0934 0 0
9:53 am 09:53 Sunny 56 13.3 22 -5.6 27 27 NW 9 15 29.78 1008 10 16.0934 0 0
10:53 am 10:53 Mostly Cloudy 56 13.3 23 -5 28 28 Calm 29.78 1008 10 16.0934 0 0
11:53 am 11:53 Mostly Sunny 59 15 24 -4.4 26 26 SSW 14 22 29.76 1008 10 16.0934 0 0
12:53 pm 12:53 Sunny 61 16.1 20 -6.7 20 20 SW 20 31 29.74 1007 10 16.0934 0 0
1:53 pm 13:53 Mostly Sunny 59 15 21 -6.1 23 23 W 13 20 29.74 1007 10 16.0934 0 0
2:53 pm 14:53 Sunny 61 16.1 24 -4.4 24 24 W 13 20 29.74 1007 10 16.0934 0 0
3:53 pm 15:53 Sunny 58 14.4 25 -3.9 28 28 W 12 19 29.77 1008 10 16.0934 0 0
4:53 pm 16:53 Sunny 57 13.9 26 -3.3 30 30 NW 14 22 29.79 1009 10 16.0934 0 0
5:53 pm 17:53 Clear 55 12.8 26 -3.3 33 33 NW 10 17 29.82 1010 10 16.0934 0 0
6:53 pm 18:53 Mostly Clear 53 11.7 28 -2.2 38 38 NNW 20 31 29.84 1011 10 16.0934 0 0
7:53 pm 19:53 Mostly Cloudy 52 11.1 28 -2.2 40 40 NNW 14 22 29.88 1012 10 16.0934 0 0
8:53 pm 20:53 Cloudy 50 10 29 -1.7 44 44 N 9 15 29.92 1013 10 16.0934 0 0
9:53 pm 21:53 Cloudy 51 10.6 27 -2.8 39 39 N 12 19 29.95 1014 10 16.0934 0 0
10:53 pm 22:53 Cloudy 51 10.6 30 -1.1 44 44 NE 13 20 29.98 1015 10 16.0934 0 0
11:53 pm 23:53 Cloudy with Light Rain 49 9.4 40 4.4 71 71 ESE 9 15 30.02 1017 10 16.0934 0 0.0254

Powered by AerisWeather